[[{"header":{"parameterUnit":"m.s-1","parameterCategory":1,"la1":30.2991,"la2":30.254,"lo1":-89.0895,"lo2":-89.0444,"dy":0.0017,"dx":0.0017,"nx":28,"ny":28,"refTime":"2024-10-07T09:00:00:Z","depth":0,"parameterNumber":2,"parameterNumberName":"U-component_of_WINDS"},"data":[0,0,0,0,0,0,0,0,0,0,0,0,0,0,0,0,0,0,0,0,0,0,0,0,0,0,0,0,0,0,0,0,0,0,0,0,0,0,0,0,0,0,0,0,0,0,0,0,0,0,0,0,0,0,0,0,0,0,-1.1491,-1.1492,0,-1.1549,-1.1549,-1.155,-1.1506,-1.1504,-1.1502,-1.15,-1.1561,-1.1564,-1.1567,0,0,0,0,0,0,0,0,0,0,0,0,0,-1.1344,-1.1347,-1.1491,-1.1492,-1.1493,-1.1549,-1.1549,-1.155,-1.1506,-1.1504,-1.1502,-1.1499,-1.156,-1.1564,-1.1568,0,0,0,0,0,0,0,0,0,0,0,0,0,-1.1406,-1.1348,-1.1491,-1.1477,-1.1477,-1.1549,-1.1549,-1.155,-1.1507,-1.1504,-1.1501,-1.1498,-1.1558,-1.1563,-1.1568,-1.1657,0,0,-1.1584,-1.1586,0,0,0,0,0,0,0,0,-1.1402,-1.1411,-1.1479,-1.1479,-1.1478,-1.1517,-1.152,-1.1586,-1.1507,-1.1495,-1.15,-1.1497,-1.1549,-1.1554,-1.1572,-1.166,-1.1662,-1.1584,-1.1587,-1.159,-1.1591,0,0,0,0,0,0,0,-1.1398,-1.1408,-1.1514,-1.148,-1.1479,-1.1469,-1.1474,-1.1532,-1.1538,-1.1496,-1.1493,-1.15,-1.1548,-1.1567,-1.1573,-1.1663,-1.1584,-1.1589,-1.1592,-1.1594,-1.1828,-1.1831,0,0,0,0,0,0,-1.1395,-1.1405,-1.1512,-1.1516,-1.1432,-1.1474,-1.148,-1.1508,-1.1537,-1.1538,-1.1503,-1.1498,-1.1559,-1.1567,-1.1575,-1.1681,-1.159,-1.1594,-1.1597,-1.1825,-1.1828,-1.1832,0,0,0,0,0,0,-1.1392,-1.1405,-1.151,-1.146,-1.1472,-1.1479,-1.1511,-1.151,-1.1529,-1.1542,-1.1543,-1.1521,-1.1557,-1.1567,-1.1637,-1.1683,-1.1597,-1.1601,-1.1821,-1.1826,-1.183,-1.1895,0,0,0,0,0,0,-1.1388,-1.1404,-1.1438,-1.1461,-1.1475,-1.1571,-1.1513,-1.1513,-1.1538,-1.1532,-1.1559,-1.1561,-1.1556,-1.1629,-1.1642,-1.1688,-1.1605,-1.1817,-1.1823,-1.1829,-1.1889,-1.1902,-1.1912,0,0,0,0,0,-1.1383,-1.1454,-1.144,-1.1453,-1.1517,-1.1574,-1.1582,-1.1575,-1.1541,-1.1576,-1.1584,-1.156,-1.1675,-1.1637,-1.1651,-1.1699,-1.1814,-1.1821,-1.1828,-1.1884,-1.1899,-1.1912,0,0,0,0,0,0,-1.1438,-1.1457,-1.1441,-1.1522,-1.1547,-1.1566,-1.161,-1.1591,-1.1626,-1.162,-1.1609,-1.1616,-1.1689,-1.17,-1.1658,-1.1787,-1.1739,-1.1749,-1.1777,-1.1792,-1.1803,-1.18,-1.1609,0,0,0,0,0,-1.1459,-1.1503,-1.1517,-1.1587,-1.16,-1.1603,-1.1627,-1.1619,-1.1645,-1.1655,-1.1668,-1.1694,-1.1736,-1.1764,-1.1803,-1.1889,-1.1895,-1.1929,-1.1941,-1.195,-1.196,-1.2007,-1.2023,-1.1855,-1.1855,-1.1855,0,0,-1.1504,-1.152,-1.1548,-1.1599,-1.1617,-1.1663,-1.1612,-1.1663,-1.1698,-1.1663,-1.173,-1.174,-1.1768,-1.1846,-1.1881,-1.1858,-1.2007,-1.196,-1.1967,-1.1972,-1.2016,-1.2032,-1.2047,-1.186,-1.1859,-1.1858,0,0,-1.161,-1.1626,-1.1686,-1.1705,-1.1733,-1.1734,-1.1748,-1.177,-1.1776,-1.1842,-1.1817,-1.1857,-1.193,-1.1951,-1.1971,-1.2084,-1.2064,-1.2096,-1.2158,-1.2205,-1.2218,-1.223,-1.2271,-1.2286,-1.2105,-1.2106,-1.2106,0,-1.1663,-1.1731,-1.172,-1.1773,-1.1796,-1.1765,-1.1827,-1.1845,-1.1885,-1.1902,-1.1874,-1.1964,-1.1981,-1.2064,-1.2092,-1.2108,-1.2125,-1.2095,-1.2217,-1.2228,-1.2239,-1.2279,-1.2294,-1.211,-1.2109,-1.2109,-1.2108,0,-1.1795,-1.1843,-1.1889,-1.1927,-1.1955,-1.2012,-1.2009,-1.2039,-1.2028,-1.2032,-1.21,-1.2118,-1.2161,-1.2179,-1.2169,-1.2261,-1.2246,-1.2218,-1.2171,-1.2259,-1.2297,-1.2311,-1.2115,-1.2114,-1.2113,-1.2112,0,0,-1.194,-1.197,-1.1987,-1.2004,-1.2032,-1.2069,-1.2124,-1.2165,-1.2191,-1.2219,-1.2266,-1.2327,-1.2301,-1.2324,-1.2315,-1.2355,-1.2445,-1.2322,-1.2323,-1.2346,-1.2549,-1.2572,-1.2589,-1.243,-1.2433,-1.2435,-1.2547,0,-1.2049,-1.2146,-1.2136,-1.2228,-1.2273,-1.2243,-1.2291,-1.2313,-1.2318,-1.2356,-1.2361,-1.2405,-1.2366,-1.238,-1.2418,-1.2426,-1.2486,-1.2417,-1.2475,-1.2477,-1.2472,-1.2608,-1.2633,-1.2738,-1.2561,-1.2564,-1.2566,0,-1.219,-1.2222,-1.2318,-1.2339,-1.2357,-1.2401,-1.2437,-1.2474,-1.2498,-1.2499,-1.2524,-1.2508,-1.2564,-1.2513,-1.259,-1.2544,-1.2567,-1.2574,-1.2577,-1.2585,-1.2529,-1.2622,-1.2771,-1.2788,-1.2588,-1.2586,-1.2585,0,-1.2288,-1.2355,-1.2421,-1.2437,-1.2462,-1.2493,-1.2505,-1.2526,-1.2552,-1.2583,-1.26,-1.2638,-1.2659,-1.2689,-1.2684,-1.2647,-1.2763,-1.2712,-1.2766,-1.2767,-1.2795,-1.2793,-1.2952,-1.2805,-1.2805,-1.2805,-1.2804,0,-1.2412,-1.2473,-1.2466,-1.2507,-1.2574,-1.2562,-1.2629,-1.2637,-1.2656,-1.2698,-1.2674,-1.2714,-1.2704,-1.2744,-1.274,-1.2805,-1.2815,-1.2817,-1.2816,-1.2821,-1.2821,-1.2838,-1.2831,-1.2809,-1.2808,-1.2807,-1.2806,0,-1.2535,-1.2533,-1.2603,-1.2621,-1.2626,-1.2675,-1.269,-1.2729,-1.273,-1.2784,-1.2796,-1.2799,-1.2845,-1.2842,-1.2894,-1.2891,-1.2972,-1.2961,-1.2964,-1.2963,-1.3018,-1.3014,-1.3195,-1.3219,-1.3055,-1.3056,-1.3057,0,-1.2616,-1.2662,-1.2683,-1.271,-1.2724,-1.2767,-1.2792,-1.2781,-1.2808,-1.2839,-1.2874,-1.2917,-1.2952,-1.3026,-1.3033,-1.3073,-1.3064,-1.3124,-1.307,-1.3073,-1.3067,-1.3066,-1.3071,-1.3136,-1.3138,-1.314,-1.3141,0,-1.276,-1.2756,-1.2793,-1.283,-1.2861,-1.289,-1.2916,-1.2939,-1.293,-1.2962,-1.3009,-1.3035,-1.3087,-1.3131,-1.3168,-1.318,-1.316,-1.3157,-1.3173,-1.318,-1.318,-1.3183,-1.2996,-1.3154,-1.3153,-1.3152,-1.3151,-1.3151,-1.2865,-1.2905,-1.2927,-1.2969,-1.2987,-1.3012,-1.3049,-1.3055,-1.3093,-1.3135,-1.3125,-1.3178,-1.32,-1.3248,-1.3264,-1.3304,-1.3283,-1.3304,-1.331,-1.3316,-1.3323,-1.3171,-1.3311,-1.331,-1.331,-1.331,-1.3309,0,-1.301,-1.3022,-1.3061,-1.3098,-1.3131,-1.3107,-1.3134,-1.3164,-1.321,-1.3232,-1.3266,-1.3319,-1.3361,-1.337,-1.3411,-1.3442,-1.3433,-1.3453,-1.3452,-1.3455,-1.334,-1.3324,-1.3459,-1.3459,-1.3459,-1.3459,-1.3459,-1.3459,-1.3089,-1.3155,-1.3154,-1.3229,-1.324,-1.3291,-1.3309,-1.3331,-1.3349,-1.3409,-1.3444,-1.3449,-1.3466,-1.3507,-1.3545,-1.3546,-1.3563,-1.3587,-1.3585,-1.3478,-1.3463,-1.3449,-1.3434,-1.359,-1.359,-1.3697,-1.3698,-1.3699]},{"header":{"parameterUnit":"m.s-1","parameterCategory":1,"la1":30.2991,"la2":30.254,"lo1":-89.0895,"lo2":-89.0444,"dy":0.0017,"dx":0.0017,"nx":28,"ny":28,"refTime":"2024-10-07T09:00:00:Z","depth":0,"parameterNumber":3,"parameterNumberName":"V-component_of_WINDS"},"data":[0,0,0,0,0,0,0,0,0,0,0,0,0,0,0,0,0,0,0,0,0,0,0,0,0,0,0,0,0,0,0,0,0,0,0,0,0,0,0,0,0,0,0,0,0,0,0,0,0,0,0,0,0,0,0,0,0,0,-5.967,-5.967,0,-5.9741,-5.9742,-5.9743,-5.9654,-5.965,-5.9647,-5.9644,-5.9712,-5.9717,-5.9722,0,0,0,0,0,0,0,0,0,0,0,0,0,-5.9449,-5.9454,-5.967,-5.967,-5.9671,-5.9741,-5.9742,-5.9743,-5.9654,-5.965,-5.9646,-5.9643,-5.9711,-5.9716,-5.9722,0,0,0,0,0,0,0,0,0,0,0,0,0,-5.9535,-5.9455,-5.9669,-5.9636,-5.9633,-5.9741,-5.9742,-5.9743,-5.9655,-5.965,-5.9645,-5.9641,-5.9709,-5.9716,-5.9723,-5.9866,0,0,-5.9745,-5.9748,0,0,0,0,0,0,0,0,-5.9531,-5.9544,-5.964,-5.9638,-5.9636,-5.9684,-5.9689,-5.9784,-5.9656,-5.9647,-5.9644,-5.9638,-5.9706,-5.9714,-5.9738,-5.9869,-5.9872,-5.9746,-5.975,-5.9754,-5.9756,0,0,0,0,0,0,0,-5.9525,-5.954,-5.9698,-5.9641,-5.9639,-5.9615,-5.9622,-5.9707,-5.9703,-5.9647,-5.9641,-5.9651,-5.9704,-5.9731,-5.9739,-5.9873,-5.9746,-5.9752,-5.9757,-5.976,-6.0124,-6.0129,0,0,0,0,0,0,-5.9524,-5.9536,-5.9695,-5.97,-5.957,-5.9623,-5.963,-5.9673,-5.9702,-5.9702,-5.9655,-5.9646,-5.9721,-5.973,-5.9741,-5.9909,-5.9753,-5.976,-5.9764,-6.0119,-6.0125,-6.0131,0,0,0,0,0,0,-5.9519,-5.9539,-5.9693,-5.9616,-5.9634,-5.9632,-5.9681,-5.9677,-5.9704,-5.9708,-5.9706,-5.9683,-5.9717,-5.973,-5.9836,-5.991,-5.9764,-5.977,-6.0112,-6.0121,-6.0128,-6.0248,0,0,0,0,0,0,-5.9513,-5.9538,-5.9594,-5.9618,-5.9638,-5.9789,-5.9685,-5.9682,-5.9717,-5.9707,-5.9734,-5.9734,-5.9714,-5.9825,-5.9843,-5.9918,-5.9776,-6.0106,-6.0116,-6.0126,-6.0238,-6.0259,-6.0278,0,0,0,0,0,-5.9506,-5.9623,-5.9597,-5.9617,-5.9708,-5.9793,-5.9804,-5.9782,-5.9724,-5.9778,-5.9781,-5.9733,-5.9899,-5.9837,-5.9856,-5.9934,-6.0101,-6.0113,-6.0125,-6.0228,-6.0255,-6.0277,0,0,0,0,0,0,-5.9606,-5.9626,-5.9597,-5.9726,-5.9759,-5.9778,-5.9847,-5.9811,-5.9859,-5.9847,-5.9815,-5.9821,-5.9934,-5.9944,-5.9874,-6.0073,-5.999,-6.0007,-6.0063,-6.0088,-6.0108,-6.0103,-5.9782,0,0,0,0,0,-5.9643,-5.9712,-5.9725,-5.9838,-5.9856,-5.9849,-5.9885,-5.9865,-5.9896,-5.9909,-5.9919,-5.995,-6.0009,-6.0049,-6.0104,-6.0238,-6.0242,-6.0301,-6.0322,-6.0338,-6.0353,-6.0424,-6.045,-6.017,-6.017,-6.017,0,0,-5.9721,-5.974,-5.9785,-5.9859,-5.9882,-5.9952,-5.9861,-5.9939,-5.9991,-5.992,-6.0021,-6.003,-6.0062,-6.0182,-6.0236,-6.0194,-6.0431,-6.0354,-6.0367,-6.0372,-6.0439,-6.0465,-6.0489,-6.0178,-6.0177,-6.0176,0,0,-5.9898,-5.992,-6.0017,-6.0042,-6.0078,-6.0072,-6.0096,-6.012,-6.0124,-6.0225,-6.0173,-6.0232,-6.0335,-6.036,-6.0387,-6.0573,-6.053,-6.0592,-6.0697,-6.0767,-6.0789,-6.0808,-6.0874,-6.0898,-6.0606,-6.0606,-6.0606,0,-5.9989,-6.0095,-6.007,-6.0153,-6.0186,-6.0127,-6.0223,-6.0248,-6.03,-6.0323,-6.0276,-6.0404,-6.0422,-6.0547,-6.0593,-6.0616,-6.064,-6.0588,-6.0788,-6.0807,-6.0825,-6.0887,-6.0912,-6.0613,-6.0613,-6.0612,-6.0611,0,-6.0205,-6.0279,-6.0352,-6.0406,-6.0447,-6.0536,-6.0523,-6.0567,-6.0543,-6.0542,-6.0644,-6.0663,-6.0721,-6.0749,-6.0725,-6.0871,-6.0844,-6.0793,-6.0709,-6.0859,-6.0917,-6.0941,-6.0624,-6.0621,-6.0619,-6.0617,0,0,-6.0447,-6.0486,-6.0513,-6.0537,-6.0573,-6.0628,-6.0714,-6.0772,-6.081,-6.0847,-6.0917,-6.1006,-6.0959,-6.0989,-6.0967,-6.1029,-6.1175,-6.097,-6.097,-6.1007,-6.1335,-6.1373,-6.1401,-6.1146,-6.1151,-6.1154,-6.1332,0,-6.0624,-6.0775,-6.0755,-6.0898,-6.0966,-6.0911,-6.0985,-6.1013,-6.1014,-6.107,-6.107,-6.1133,-6.1067,-6.1085,-6.1143,-6.1145,-6.124,-6.1131,-6.1209,-6.1213,-6.1203,-6.1432,-6.1472,-6.1639,-6.1355,-6.1358,-6.1361,0,-6.0851,-6.0899,-6.105,-6.1075,-6.1103,-6.117,-6.1221,-6.1276,-6.1307,-6.1303,-6.1337,-6.1304,-6.1387,-6.1302,-6.1416,-6.1343,-6.1373,-6.1379,-6.1385,-6.1391,-6.1296,-6.1444,-6.1692,-6.1717,-6.1397,-6.1394,-6.1391,0,-6.1013,-6.1114,-6.1218,-6.1239,-6.1271,-6.132,-6.1335,-6.1361,-6.1397,-6.1441,-6.1464,-6.1516,-6.1545,-6.1585,-6.1567,-6.1507,-6.1684,-6.1597,-6.1682,-6.1683,-6.1722,-6.1719,-6.1978,-6.1742,-6.1742,-6.1741,-6.1741,0,-6.1213,-6.1307,-6.1291,-6.1354,-6.1458,-6.1433,-6.1535,-6.1543,-6.1567,-6.163,-6.1584,-6.1643,-6.1616,-6.1673,-6.1659,-6.1755,-6.1768,-6.1766,-6.1761,-6.177,-6.1771,-6.179,-6.1778,-6.1748,-6.1746,-6.1745,-6.1744,0,-6.1411,-6.1404,-6.1513,-6.1534,-6.1542,-6.1617,-6.1634,-6.1693,-6.169,-6.177,-6.1787,-6.1782,-6.1847,-6.1833,-6.1903,-6.1894,-6.2015,-6.1995,-6.2005,-6.2,-6.2085,-6.2078,-6.2365,-6.2401,-6.2142,-6.2145,-6.2147,0,-6.1539,-6.161,-6.164,-6.168,-6.1699,-6.1764,-6.18,-6.1778,-6.1818,-6.1858,-6.1912,-6.1973,-6.202,-6.2126,-6.2127,-6.218,-6.2162,-6.2259,-6.2169,-6.2176,-6.2163,-6.2159,-6.2165,-6.2277,-6.228,-6.2282,-6.2284,0,-6.1767,-6.176,-6.1816,-6.1871,-6.1917,-6.1959,-6.1995,-6.203,-6.201,-6.2057,-6.2124,-6.2161,-6.2233,-6.2294,-6.2343,-6.2356,-6.2317,-6.2312,-6.2334,-6.2344,-6.2347,-6.2346,-6.2053,-6.2306,-6.2303,-6.2302,-6.2301,-6.23,-6.1933,-6.1994,-6.2025,-6.2089,-6.2115,-6.215,-6.2207,-6.2211,-6.2267,-6.2326,-6.2308,-6.2384,-6.2411,-6.2474,-6.2493,-6.255,-6.2514,-6.2546,-6.2554,-6.2563,-6.2573,-6.2338,-6.2559,-6.2558,-6.2558,-6.2557,-6.2557,0,-6.2159,-6.2176,-6.2235,-6.2289,-6.2339,-6.2299,-6.2338,-6.2382,-6.2449,-6.2479,-6.2528,-6.2604,-6.2662,-6.2669,-6.2723,-6.2768,-6.2751,-6.2783,-6.2779,-6.2783,-6.2603,-6.2578,-6.2796,-6.2795,-6.2795,-6.2795,-6.2795,-6.2795,-6.2282,-6.2383,-6.238,-6.2492,-6.2508,-6.2583,-6.2609,-6.2641,-6.2665,-6.2752,-6.2801,-6.2806,-6.2826,-6.2882,-6.2933,-6.2933,-6.2955,-6.2994,-6.2987,-6.2819,-6.2795,-6.2773,-6.2749,-6.2999,-6.2999,-6.3162,-6.3164,-6.3165]}]]